Weather Roundup
Issued by NWS

Home | Current Version | Previous Version | Graphics & Text | Print | Product List | Glossary Off
Versions: 1 2 3 4 5 6 7 8 9 10 11 12 13 14 15 16 17 18 19 20 21 22 23 24 25 26 27 28 29 30 31 32 33 34 35 36 37 38 39 40 41 42 43 44 45 46 47 48 49 50

000
NZUS93 KARX 020359
HRRWXR

CURRENT HOURLY OBSERVATIONS ACROSS
MUCH OF THE UPPER MISSISSIPPI VALLEY
NATIONAL WEATHER SERVICE LA CROSSE WI
1100 PM CDT SUN MAY 01 2016


...SOUTHEAST MINNESOTA...


CITY           SKY/WX    TMP DP  RH WIND       PRES   REMARKS
ROCHESTER      CLEAR     45  41  86 W9        30.10S
ROCHESTER/MAYO FAIR      50  41  70 W5        30.10S
WINONA         CLOUDY    48  43  81 CALM      30.09R
AUSTIN         CLEAR     46  41  81 CALM      30.10S
ALBERT LEA     NOT AVBL
DODGE CENTER   PTCLDY    43  39  87 W5        30.10S
PRESTON        CLEAR     43  39  85 NW5       30.09S
OWATONNA       CLEAR     46  41  81 CALM      30.11S
FARIBAULT      NOT AVBL
$$

...ELSEWHERE IN MINNESOTA...


CITY           SKY/WX    TMP DP  RH WIND       PRES   REMARKS
MINNEAPOLIS    CLEAR     54  35  48 N12       30.11R
INTNL FALLS    CLEAR     34  31  88 CALM      30.13S
DULUTH         CLEAR     40  30  67 E6        30.14F
RED WING       CLEAR     52  36  54 N5        30.08R
REDWOOD FALLS  CLEAR     49  31  49 CALM      30.13S
MANKATO        PTCLDY    52  34  50 NW7       30.11S
WORTHINGTON    CLEAR     42  39  89 W5        30.16R
FAIRMONT       CLEAR     48  36  61 NW5       30.12R
$$

...SOUTHWEST WISCONSIN...


CITY           SKY/WX    TMP DP  RH WIND       PRES   REMARKS
LA CROSSE      CLEAR     45  37  73 CALM      30.08R
PRAIRIE DU CHI CLOUDY    42  40  93 CALM      30.08R FOG
BOSCOBEL       FOG       39  38  96 CALM      30.08R VSB 1/4
LONE ROCK      NOT AVBL
PLATTEVILLE    PTCLDY    48  44  85 NE6       30.04R
FORT MC COY    CLEAR     41  35  80 CALM      30.09S
MAUSTON-NEW LI NOT AVBL
VIROQUA        FAIR      44  44 100 CALM      30.07S
WIS DELLS      CLEAR     46  38  73 NE8       30.07S
$$

...ELSEWHERE IN WISCONSIN...


CITY           SKY/WX    TMP DP  RH WIND       PRES   REMARKS
MILWAUKEE      LGT RAIN  44  42  93 NE8       30.05R
MADISON        CLOUDY    48  42  80 NE8       30.05S
GREEN BAY      CLEAR     44  39  82 N8        30.09S
EAU CLAIRE     CLEAR     52  34  50 NE7       30.08S
BLACK RVR FLS  FAIR      39  38  98 CALM      30.08S
MEDFORD        PTCLDY    47  35  64 CALM      30.10S
WAUSAU         PTCLDY    49  33  54 CALM      30.08F
WIS RAPIDS     CLEAR     39  32  76 N5        30.10F
MARSHFIELD     PTCLDY    47  34  60 E6        30.08F
RICE LAKE      CLEAR     48  34  57 N10       30.13S
$$

...NORTHEAST IOWA...


CITY           SKY/WX    TMP DP  RH WIND       PRES   REMARKS
WATERLOO       CLOUDY    46  43  89 N6        30.09R
DUBUQUE        CLOUDY    47  43  86 NE8       30.05R
DECORAH        CLEAR     45  45 100 CALM      30.08R FOG
MASON CITY     CLOUDY    42  41  96 W6        30.12R
CHARLES CITY   CLOUDY    45  45 100 CALM      30.10S
OELWEIN        CLOUDY    46  45  93 N5        30.09R
$$

...ELSEWHERE IN IOWA...


CITY           SKY/WX    TMP DP  RH WIND       PRES   REMARKS
DES MOINES     CLOUDY    49  45  86 N6        30.12R
IOWA CITY      CLOUDY    49  46  90 N7        30.07S
FORT DODGE     CLOUDY    46  43  87 CALM      30.14R
MARSHALLTOWN   CLOUDY    46  44  93 NE6       30.09R
CEDAR RAPIDS   CLOUDY    48  47  96 N5        30.06R
$$

...NORTHERN ILLINOIS...


CITY           SKY/WX    TMP DP  RH WIND       PRES   REMARKS
CHICAGO-OHARE  CLOUDY    47  45  93 NE13      30.00R
CHICAGO-MIDWAY CLOUDY    48  45  89 NE10      29.99R
MOLINE         CLOUDY    50  47  89 CALM      30.04R
ROCKFORD       DRIZZLE   48  45  89 N12       30.04S
PEORIA         CLOUDY    50  47  89 CALM      30.01R
$$

NOTE: "FAIR" INDICATES FEW OR NO CLOUDS BELOW 12,000 FEET WITH NO
SIGNIFICANT WEATHER AND/OR OBSTRUCTIONS TO VISIBILITY. WIND
SPEEDS ARE IN MILES-PER-HOUR.




USA.gov is the U.S. government's official web portal to all federal, state and local government web resources and services.